Weather History for Tapachula Airport, Mexico

Change the Weather History Date:

Tuesday, September 17, 2013

  Actual Average Record
Temperature  
Mean Temperature 80 °F -  
Max Temperature 87 °F 86 °F 89 °F (1996)
Min Temperature 73 °F 73 °F 73 °F (1999)
Cooling Degree Days 15    
Growing Degree Days 30 (Base 50)    
Moisture  
Dew Point 77 °F    
Average Humidity 89    
Maximum Humidity 100    
Minimum Humidity 75    
Precipitation  
Precipitation 0.00 in - - ()
Sea Level Pressure  
Sea Level Pressure 29.82 in    
Wind  
Wind Speed 2 mph ()    
Max Wind Speed 13 mph    
Max Gust Speed -    
Visibility 9.1 miles    
Events      
Averages and records for this station are not official NWS values.
T = Trace of Precipitation, MM = Missing Value Source: Averaged Metar Reports

Daily Weather History Graph

Daily Weather History Graph

Search for Another Location

Airport:

Trip Planner

Search our weather history database for the weather conditions in past years. The results will help you decide how hot, cold, wet, or windy it might be!

Date:

Astronomy

Sep. 17, 2013 Rise Set
Actual Time 6:58 AM CDT 7:09 PM CDT
Civil Twilight 6:36 AM CDT 7:30 PM CDT
Nautical Twilight 6:11 AM CDT 7:55 PM CDT
Astronomical Twilight 5:46 AM CDT 8:20 PM CDT
Moon 5:48 PM CDT (9/17) 5:06 AM CDT (9/17)
Length of Visible Light 12h 53m
Length of Day
12h 10m
Waxing Gibbous, 96% of the Moon is Illuminated
Sep 17
Waxing Gibbous
Sep 19
Full
Sep 26
Last Quarter
Oct 4
New
Oct 11
First Quarter

Hourly Weather History & Observations

Time (CDT) Temp. Heat Index Dew Point Humidity Pressure Visibility Wind Dir Wind Speed Gust Speed Precip Events Conditions
12:40 AM 73.4 °F - 73.4 °F 100% 29.86 in 6.0 mi Calm Calm - N/A   Overcast
1:50 AM 73.4 °F - 73.4 °F 100% 29.88 in 6.0 mi Calm Calm - N/A   Overcast
2:40 AM 75.2 °F - 73.4 °F 94% 29.86 in 6.0 mi Calm Calm - N/A   Overcast
3:40 AM 75.2 °F - 73.4 °F 94% 29.83 in 6.0 mi Calm Calm - N/A   Mostly Cloudy
4:40 AM 75.2 °F - 73.4 °F 94% 29.83 in 6.0 mi Calm Calm - N/A   Mostly Cloudy
5:40 AM 75.2 °F - 73.4 °F 94% 29.83 in 6.0 mi Calm Calm - N/A   Mostly Cloudy
6:40 AM 77.0 °F - 73.4 °F 89% 29.80 in 6.0 mi Calm Calm - N/A   Mostly Cloudy
7:40 AM 77.0 °F - 73.4 °F 89% 29.84 in 6.0 mi Calm Calm - N/A   Mostly Cloudy
8:40 AM 77.0 °F - 75.2 °F 94% 29.85 in 8.0 mi Calm Calm - N/A   Mostly Cloudy
9:40 AM 80.6 °F 87.1 °F 77.0 °F 89% 29.84 in 8.0 mi Calm Calm - N/A   Mostly Cloudy
10:40 AM 82.4 °F 90.9 °F 77.0 °F 84% 29.87 in 8.0 mi Calm Calm - N/A   Mostly Cloudy
11:40 AM 84.2 °F 96.1 °F 78.8 °F 84% 29.87 in 8.0 mi Calm Calm - N/A   Mostly Cloudy
12:45 PM 86.0 °F 99.3 °F 78.8 °F 79% 29.86 in 10.0 mi West 11.5 mph - N/A   Mostly Cloudy
1:40 PM 87.8 °F 102.5 °F 78.8 °F 75% 29.82 in 10.0 mi West 11.5 mph - N/A   Mostly Cloudy
2:40 PM 86.0 °F 99.3 °F 78.8 °F 79% 29.82 in 10.0 mi West 12.7 mph - N/A   Mostly Cloudy
2:52 PM 86.0 °F 99.3 °F 78.8 °F 79% 29.82 in 10.0 mi West 12.7 mph - N/A   Mostly Cloudy
3:43 PM 86.0 °F 99.3 °F 78.8 °F 79% 29.84 in 10.0 mi WNW 9.2 mph - N/A   Mostly Cloudy
4:40 PM 84.2 °F 96.1 °F 78.8 °F 84% 29.76 in 10.0 mi West 9.2 mph - N/A   Mostly Cloudy
5:43 PM 84.2 °F 96.1 °F 78.8 °F 84% 29.76 in 10.0 mi SW 9.2 mph - N/A   Scattered Clouds
6:09 PM 84.2 °F 96.1 °F 78.8 °F 84% 29.76 in 10.0 mi SW 9.2 mph - N/A   Mostly Cloudy
6:45 PM 82.4 °F 92.4 °F 78.8 °F 89% 29.73 in 10.0 mi WNW 5.8 mph - N/A   Mostly Cloudy
7:45 PM 80.6 °F 88.1 °F 78.8 °F 94% 29.77 in 10.0 mi Calm Calm - N/A   Mostly Cloudy
7:46 PM 80.6 °F 88.1 °F 78.8 °F 94% 29.77 in 10.0 mi Calm Calm - N/A   Mostly Cloudy
8:40 PM 80.6 °F 88.1 °F 78.8 °F 94% 29.80 in 10.0 mi Calm Calm - N/A   Mostly Cloudy
8:46 PM 80.6 °F 88.1 °F 78.8 °F 94% 29.80 in 10.0 mi Calm Calm - N/A   Mostly Cloudy
9:49 PM 78.8 °F - 77.0 °F 94% 29.83 in 15.0 mi Calm Calm - N/A   Mostly Cloudy
10:40 PM 78.8 °F - 77.0 °F 94% 29.86 in 15.0 mi Calm Calm - N/A   Mostly Cloudy
11:40 PM 77.0 °F - 73.4 °F 89% 29.87 in 15.0 mi West 11.5 mph - N/A   Mostly Cloudy